[[{"header":{"parameterUnit":"m.s-1","parameterCategory":1,"la1":30.2991,"la2":30.254,"lo1":-89.0895,"lo2":-89.0444,"dy":0.0017,"dx":0.0017,"nx":28,"ny":28,"refTime":"2024-06-07T21:00:00:Z","depth":0,"parameterNumber":2,"parameterNumberName":"U-component_of_WINDS"},"data":[0,0,0,0,0,0,0,0,0,0,0,0,0,0,0,0,0,0,0,0,0,0,0,0,0,0,0,0,0,0,0,0,0,0,0,0,0,0,0,0,0,0,0,0,0,0,0,0,0,0,0,0,0,0,0,0,0,0,2.2544,2.2547,0,2.2763,2.2765,2.2768,2.2783,2.2781,2.2778,2.2776,2.3007,2.3015,2.3024,0,0,0,0,0,0,0,0,0,0,0,0,0,2.2147,2.2154,2.2544,2.2547,2.255,2.2762,2.2765,2.2769,2.2784,2.2781,2.2778,2.2775,2.3004,2.3014,2.3025,0,0,0,0,0,0,0,0,0,0,0,0,0,2.2338,2.2157,2.2544,2.2583,2.2588,2.2762,2.2766,2.2769,2.2784,2.2781,2.2777,2.2774,2.3001,2.3013,2.3026,2.3178,0,0,2.3065,2.307,0,0,0,0,0,0,0,0,2.2327,2.2353,2.2574,2.258,2.2587,2.2742,2.271,2.2907,2.2785,2.271,2.2776,2.2772,2.2922,2.2941,2.2991,2.3188,2.3198,2.3066,2.3073,2.3079,2.3082,0,0,0,0,0,0,0,2.2314,2.2343,2.2631,2.2577,2.2585,2.2592,2.2615,2.2748,2.2835,2.2716,2.2718,2.2743,2.2925,2.2978,2.2996,2.3202,2.3065,2.3077,2.3084,2.3089,2.3536,2.354,0,0,0,0,0,0,2.2292,2.2332,2.2624,2.2637,2.2445,2.2602,2.2628,2.2696,2.2833,2.285,2.2746,2.2743,2.2959,2.2981,2.3004,2.3191,2.3079,2.3091,2.3098,2.3532,2.3537,2.3542,0,0,0,0,0,0,2.2284,2.2318,2.2615,2.2485,2.2524,2.2612,2.2689,2.2702,2.2755,2.2855,2.2872,2.2784,2.2957,2.2987,2.3134,2.3199,2.3096,2.3108,2.3527,2.3534,2.354,2.3565,0,0,0,0,0,0,2.2272,2.2315,2.2372,2.2486,2.253,2.2739,2.2693,2.2709,2.2776,2.2774,2.2895,2.2912,2.2956,2.3115,2.3147,2.3215,2.3118,2.3522,2.353,2.3538,2.3559,2.3572,2.3583,0,0,0,0,0,2.2258,2.2371,2.2374,2.2409,2.2603,2.2743,2.2768,2.2814,2.2781,2.284,2.2905,2.2908,2.3187,2.313,2.3166,2.3239,2.3518,2.3528,2.3537,2.3554,2.3569,2.3582,0,0,0,0,0,0,2.2264,2.2387,2.2392,2.2545,2.2633,2.2745,2.282,2.2829,2.293,2.2924,2.298,2.3008,2.3153,2.3211,2.3145,2.3393,2.3349,2.3366,2.335,2.3365,2.3377,2.336,2.3128,0,0,0,0,0,2.2283,2.2384,2.2487,2.2613,2.2656,2.2731,2.2793,2.2822,2.2916,2.2954,2.3029,2.3122,2.3231,2.3302,2.3408,2.3568,2.3595,2.3636,2.3648,2.3657,2.3671,2.3761,2.378,2.3574,2.3574,2.3573,0,0,2.2324,2.2403,2.2464,2.2616,2.2687,2.2793,2.2762,2.2875,2.2954,2.2972,2.3114,2.3174,2.3282,2.3436,2.3508,2.3489,2.3734,2.3669,2.3676,2.3685,2.3773,2.3792,2.381,2.358,2.3579,2.3578,0,0,2.2451,2.2521,2.2633,2.2705,2.2813,2.2862,2.2889,2.3,2.3039,2.3183,2.3198,2.3295,2.3481,2.3558,2.3621,2.3779,2.3786,2.3812,2.3874,2.3961,2.3977,2.3991,2.4048,2.4067,2.3826,2.3826,2.3826,0,2.2488,2.2645,2.2691,2.2803,2.287,2.2889,2.3004,2.3073,2.3211,2.3258,2.3234,2.3468,2.3542,2.3715,2.3753,2.3804,2.3838,2.3798,2.397,2.3986,2.4,2.4054,2.4075,2.3828,2.3828,2.3828,2.3828,0,2.2686,2.2795,2.2873,2.3003,2.3079,2.3193,2.3258,2.333,2.3352,2.3404,2.3552,2.3642,2.3766,2.3809,2.3833,2.3986,2.3971,2.3958,2.3915,2.4021,2.4073,2.4094,2.3832,2.3831,2.383,2.383,0,0,2.2822,2.2975,2.3003,2.3063,2.3184,2.327,2.3386,2.3505,2.3566,2.3661,2.376,2.3918,2.3907,2.3978,2.4011,2.4088,2.4207,2.4066,2.4069,2.4089,2.4382,2.439,2.4413,2.4213,2.4217,2.422,2.4373,0,2.2962,2.3164,2.3209,2.3385,2.3487,2.3507,2.3608,2.3695,2.3747,2.3843,2.3903,2.4013,2.399,2.4033,2.411,2.4176,2.4267,2.4166,2.4307,2.4311,2.4277,2.444,2.4449,2.4588,2.4393,2.4397,2.4399,0,2.3152,2.3249,2.3434,2.3542,2.3586,2.3676,2.3789,2.388,2.398,2.4013,2.4093,2.4118,2.4241,2.4193,2.4364,2.4294,2.4355,2.4397,2.4403,2.4418,2.4361,2.4458,2.4634,2.4654,2.4432,2.4429,2.4427,0,2.3231,2.3409,2.3543,2.3593,2.3723,2.3785,2.3842,2.3938,2.4007,2.4108,2.4153,2.4268,2.433,2.4419,2.4475,2.4435,2.4643,2.4599,2.4675,2.4673,2.4716,2.4713,2.4903,2.4757,2.4757,2.4757,2.4756,0,2.3383,2.3495,2.358,2.3662,2.3789,2.3842,2.3967,2.4025,2.411,2.4205,2.4232,2.4321,2.439,2.449,2.4535,2.467,2.4699,2.473,2.4741,2.4727,2.4723,2.4767,2.4758,2.4762,2.4761,2.476,2.4759,0,2.3492,2.3553,2.37,2.3811,2.3841,2.393,2.4026,2.4108,2.4161,2.4282,2.4313,2.4398,2.4517,2.4582,2.4732,2.4762,2.4913,2.4919,2.4878,2.4883,2.4955,2.4947,2.5179,2.5213,2.5045,2.5047,2.5048,0,2.3584,2.367,2.379,2.3854,2.3912,2.4016,2.4086,2.4143,2.4215,2.4336,2.4403,2.4523,2.4622,2.4811,2.4888,2.5003,2.5011,2.5085,2.5029,2.5013,2.5012,2.5005,2.5014,2.5094,2.5096,2.5097,2.5098,0,2.374,2.3766,2.3865,2.3975,2.4058,2.4148,2.4237,2.429,2.4361,2.4442,2.4562,2.4639,2.4791,2.491,2.5032,2.5094,2.5109,2.5116,2.5139,2.5126,2.5098,2.5113,2.4904,2.511,2.5108,2.5108,2.5107,2.5107,2.3843,2.392,2.4016,2.4126,2.4199,2.4283,2.4365,2.4428,2.4529,2.4655,2.4684,2.4811,2.4911,2.5074,2.514,2.5242,2.5228,2.5262,2.5271,2.5278,2.528,2.5082,2.5264,2.5264,2.5264,2.5264,2.5264,0,2.3999,2.4062,2.4163,2.4286,2.4373,2.4378,2.4478,2.4551,2.4662,2.4752,2.4848,2.4988,2.5104,2.519,2.5309,2.5374,2.5384,2.5403,2.5399,2.5413,2.5286,2.5253,2.5393,2.5393,2.5393,2.5393,2.5393,2.5393,2.409,2.4222,2.426,2.443,2.4493,2.4616,2.4672,2.475,2.4822,2.4976,2.5072,2.5126,2.5216,2.5341,2.5449,2.5471,2.5514,2.5532,2.5555,2.5435,2.5422,2.5408,2.5378,2.5541,2.5541,2.5673,2.5674,2.5675]},{"header":{"parameterUnit":"m.s-1","parameterCategory":1,"la1":30.2991,"la2":30.254,"lo1":-89.0895,"lo2":-89.0444,"dy":0.0017,"dx":0.0017,"nx":28,"ny":28,"refTime":"2024-06-07T21:00:00:Z","depth":0,"parameterNumber":3,"parameterNumberName":"V-component_of_WINDS"},"data":[0,0,0,0,0,0,0,0,0,0,0,0,0,0,0,0,0,0,0,0,0,0,0,0,0,0,0,0,0,0,0,0,0,0,0,0,0,0,0,0,0,0,0,0,0,0,0,0,0,0,0,0,0,0,0,0,0,0,2.1563,2.1564,0,2.1705,2.1706,2.1708,2.1656,2.1652,2.1649,2.1646,2.1789,2.1795,2.1802,0,0,0,0,0,0,0,0,0,0,0,0,0,2.1241,2.1247,2.1562,2.1564,2.1566,2.1704,2.1706,2.1708,2.1656,2.1652,2.1648,2.1645,2.1787,2.1795,2.1803,0,0,0,0,0,0,0,0,0,0,0,0,0,2.1382,2.1249,2.1562,2.1557,2.1558,2.1704,2.1706,2.1709,2.1657,2.1652,2.1647,2.1643,2.1784,2.1794,2.1804,2.1963,0,0,2.1835,2.1839,0,0,0,0,0,0,0,0,2.1374,2.1393,2.1556,2.1557,2.1559,2.1657,2.1645,2.1794,2.1658,2.1619,2.1646,2.1641,2.1749,2.1762,2.1799,2.197,2.1976,2.1836,2.1842,2.1846,2.1849,0,0,0,0,0,0,0,2.1364,2.1387,2.1619,2.1558,2.156,2.1545,2.156,2.1673,2.1709,2.1622,2.1619,2.1637,2.1749,2.1789,2.1802,2.1978,2.1836,2.1845,2.1851,2.1855,2.2281,2.2286,0,0,0,0,0,0,2.1354,2.1379,2.1614,2.1623,2.1453,2.1555,2.1572,2.1631,2.1708,2.1715,2.164,2.1634,2.1774,2.179,2.1807,2.1994,2.1846,2.1856,2.1862,2.2276,2.2282,2.2288,0,0,0,0,0,0,2.1347,2.1376,2.1608,2.15,2.1529,2.1566,2.1633,2.1636,2.1676,2.1722,2.1727,2.1675,2.1771,2.1792,2.1923,2.1999,2.1861,2.187,2.227,2.2278,2.2285,2.2373,0,0,0,0,0,0,2.1338,2.1374,2.1436,2.1502,2.1535,2.1725,2.1637,2.1642,2.1694,2.1687,2.1756,2.1763,2.1769,2.1909,2.1934,2.201,2.1878,2.2263,2.2273,2.2282,2.2364,2.2383,2.24,0,0,0,0,0,2.1327,2.1456,2.1439,2.1468,2.1614,2.1729,2.1748,2.1753,2.1701,2.1762,2.1791,2.1761,2.1987,2.1922,2.195,2.2031,2.2258,2.227,2.2282,2.2356,2.2379,2.2399,0,0,0,0,0,0,2.1397,2.1464,2.1447,2.1601,2.166,2.172,2.1799,2.1779,2.1853,2.1843,2.1845,2.1861,2.1995,2.2026,2.1954,2.2186,2.2114,2.2132,2.2161,2.2184,2.2202,2.219,2.1886,0,0,0,0,0,2.1431,2.1521,2.1574,2.1704,2.1735,2.1762,2.1812,2.1811,2.1872,2.1896,2.1934,2.1993,2.2077,2.2133,2.2213,2.2368,2.238,2.2437,2.2455,2.247,2.2484,2.2565,2.2589,2.2326,2.2326,2.2326,0,0,2.1501,2.1548,2.1605,2.1719,2.1765,2.1856,2.1783,2.1883,2.195,2.1911,2.2037,2.2067,2.2132,2.2275,2.234,2.2305,2.256,2.2485,2.2496,2.2503,2.2579,2.2604,2.2626,2.2334,2.2333,2.2331,0,0,2.1674,2.1721,2.1832,2.1879,2.1949,2.1965,2.1992,2.2055,2.2073,2.22,2.2171,2.225,2.2395,2.2442,2.2485,2.2672,2.2645,2.2698,2.2791,2.287,2.289,2.2909,2.2972,2.2995,2.2713,2.2713,2.2713,0,2.1752,2.1889,2.1892,2.1994,2.2043,2.2013,2.2124,2.2169,2.2261,2.2295,2.2255,2.2434,2.2476,2.2628,2.2673,2.271,2.2738,2.269,2.2887,2.2906,2.2923,2.2983,2.3007,2.2719,2.2718,2.2717,2.2717,0,2.1979,2.2074,2.2156,2.2245,2.2304,2.241,2.2428,2.2486,2.2479,2.2499,2.2625,2.2675,2.2762,2.2799,2.2793,2.2948,2.2924,2.2886,2.2813,2.2953,2.301,2.3034,2.2727,2.2725,2.2723,2.2722,0,0,2.2201,2.2289,2.2319,2.2357,2.243,2.2503,2.2606,2.2692,2.2741,2.2804,2.2889,2.3011,2.2975,2.3023,2.3022,2.3091,2.3232,2.3044,2.3045,2.3075,2.3402,2.3428,2.3456,2.3215,2.322,2.3223,2.3395,0,2.2378,2.256,2.2565,2.2731,2.2816,2.2787,2.2876,2.2929,2.295,2.3024,2.3046,2.3131,2.3079,2.3108,2.3175,2.3201,2.3297,2.3188,2.3291,2.3294,2.3273,2.3486,2.3515,2.3676,2.3418,2.3421,2.3424,0,2.2609,2.2679,2.2854,2.2911,2.2947,2.3027,2.3104,2.3177,2.3235,2.3244,2.3297,2.3285,2.3387,2.3312,2.345,2.3376,2.3418,2.3437,2.3443,2.3451,2.3367,2.3497,2.3727,2.375,2.346,2.3457,2.3454,0,2.2749,2.2888,2.3009,2.3043,2.3114,2.317,2.3202,2.3256,2.3306,2.3373,2.3404,2.3482,2.3524,2.3584,2.3591,2.3536,2.3729,2.3656,2.3738,2.3738,2.3779,2.3776,2.4016,2.381,2.381,2.3809,2.3809,0,2.2945,2.3052,2.3073,2.3147,2.3265,2.3268,2.3384,2.3411,2.3458,2.3535,2.3515,2.3587,2.3594,2.3667,2.3674,2.3786,2.3806,2.3814,2.3814,2.3815,2.3814,2.3842,2.383,2.3815,2.3814,2.3813,2.3812,0,2.3122,2.3141,2.327,2.3326,2.3342,2.3426,2.3472,2.3542,2.356,2.3657,2.368,2.3708,2.3793,2.3807,2.3907,2.3911,2.4044,2.4034,2.4025,2.4023,2.4103,2.4094,2.4368,2.4403,2.4176,2.4178,2.418,0,2.3245,2.3326,2.339,2.344,2.3475,2.3557,2.3607,2.3612,2.3665,2.3736,2.3796,2.3879,2.3946,2.4083,2.4111,2.4186,2.4176,2.4267,2.4187,2.4184,2.4174,2.4168,2.4175,2.4282,2.4284,2.4286,2.4288,0,2.3459,2.3463,2.3538,2.3615,2.3676,2.3736,2.3794,2.3835,2.3847,2.3908,2.3995,2.4046,2.4148,2.423,2.4304,2.4334,2.4312,2.4313,2.4335,2.4336,2.4326,2.4329,2.4064,2.4306,2.4304,2.4303,2.4302,2.4301,2.3611,2.368,2.3735,2.3818,2.3861,2.3914,2.3981,2.4007,2.408,2.4163,2.4162,2.4256,2.4308,2.4406,2.4441,2.4513,2.4484,2.4517,2.4525,2.4533,2.4539,2.4316,2.4527,2.4527,2.4526,2.4526,2.4525,0,2.3822,2.3855,2.3931,2.4011,2.4075,2.405,2.4111,2.4165,2.4249,2.43,2.4366,2.4464,2.4542,2.4575,2.4651,2.4702,2.4694,2.4722,2.4717,2.4724,2.4563,2.4535,2.4727,2.4727,2.4727,2.4727,2.4727,2.4727,2.3939,2.4054,2.4065,2.42,2.4232,2.4325,2.4362,2.441,2.445,2.4561,2.4626,2.4647,2.4689,2.4768,2.4837,2.4845,2.4872,2.4905,2.4907,2.4756,2.4736,2.4716,2.4689,2.4911,2.4912,2.5062,2.5063,2.5064]}]]